| time (UTC) | temp C | wind direction | speed KPH | gust KPH | rain 1hr cm | rain 24hr cm | rain mn cm | humidity % | barometer mb |
| 20260506002328 | 15 | 360 | 9.7 | 16.1 | 1.09 | 18.69 | 0.28 | 87 | 1009.9 |
| 20260506001325 | 15 | 360 | 8.0 | 12.9 | 0.99 | 18.59 | 0.25 | 86 | 1010.0 |
| 20260506000331 | 15 | 360 | 4.8 | 8.0 | 0.79 | 18.39 | 0.20 | 86 | 1010.6 |
| 20260505235344 | 15 | 360 | 4.8 | 17.7 | 0.61 | 22.20 | 0.15 | 84 | 1010.7 |
| 20260505234330 | 15 | 360 | 9.7 | 14.5 | 0.20 | 21.79 | 0.05 | 82 | 1010.6 |
| 20260505233350 | 16 | 360 | 4.8 | 14.5 | 0.00 | 21.59 | 0.00 | 81 | 1010.5 |
| 20260505232332 | 15 | 360 | 9.7 | 14.5 | 0.00 | 21.59 | 0.00 | 81 | 1010.5 |
| 20260505231338 | 15 | 360 | 6.4 | 8.0 | 0.00 | 21.59 | 0.00 | 82 | 1010.5 |
| 20260505230329 | 15 | 360 | 4.8 | 6.4 | 0.00 | 21.59 | 0.00 | 82 | 1010.6 |
| 20260505225333 | 15 | 360 | 4.8 | 6.4 | 0.00 | 2.67 | 0.00 | 83 | 1010.5 |
| 20260505224323 | 15 | 360 | 3.2 | 4.8 | 0.00 | 2.67 | 0.00 | 83 | 1010.8 |
| 20260505223326 | 15 | 360 | 1.6 | 6.4 | 0.00 | 2.67 | 0.00 | 82 | 1011.0 |
| 20260505222337 | 16 | 360 | 4.8 | 8.0 | 0.00 | 2.67 | 0.00 | 81 | 1011.1 |
| 20260505221324 | 15 | 360 | 4.8 | 9.7 | 0.00 | 2.67 | 0.00 | 82 | 1011.4 |
| 20260505220337 | 15 | 360 | 4.8 | 9.7 | 0.00 | 2.67 | 0.00 | 82 | 1011.6 |
| 20260505215347 | 15 | 360 | 4.8 | 6.4 | 0.00 | 2.67 | 6.83 | 83 | 1011.9 |
| 20260505214330 | 15 | 360 | 6.4 | 9.7 | 0.00 | 2.67 | 6.83 | 82 | 1011.9 |
| 20260505213342 | 15 | 360 | 4.8 | 9.7 | 0.00 | 2.67 | 6.83 | 82 | 1011.9 |
| 20260505212341 | 15 | 360 | 6.4 | 9.7 | 0.00 | 2.67 | 6.83 | 82 | 1012.0 |
| 20260505211335 | 15 | 360 | 6.4 | 14.5 | 0.00 | 2.67 | 6.83 | 82 | 1011.9 |
| 20260505210338 | 15 | 360 | 8.0 | 12.9 | 0.00 | 2.67 | 6.83 | 82 | 1012.0 |
| 20260505205335 | 15 | 360 | 6.4 | 9.7 | 0.00 | 2.67 | 6.83 | 82 | 1012.1 |
| 20260505204334 | 15 | 360 | 6.4 | 12.9 | 0.00 | 2.67 | 6.83 | 83 | 1012.1 |
| 20260505203327 | 15 | 360 | 8.0 | 12.9 | 0.00 | 2.67 | 6.83 | 82 | 1012.2 |
| 20260505202329 | 15 | 360 | 6.4 | 8.0 | 0.00 | 2.67 | 6.83 | 82 | 1012.1 |
| 20260505201341 | 15 | 360 | 4.8 | 9.7 | 0.00 | 2.67 | 6.83 | 83 | 1012.2 |
| 20260505200322 | 15 | 360 | 6.4 | 9.7 | 0.00 | 2.67 | 6.83 | 83 | 1012.1 |
| 20260505195328 | 15 | 360 | 9.7 | 12.9 | 0.00 | 2.67 | 6.83 | 83 | 1012.2 |
| 20260505194338 | 15 | 360 | 3.2 | 9.7 | 0.00 | 2.67 | 6.83 | 83 | 1012.0 |
| 20260505193323 | 15 | 360 | 4.8 | 12.9 | 0.00 | 2.67 | 6.83 | 83 | 1011.9 |
| 20260505192335 | 15 | 360 | 8.0 | 12.9 | 0.00 | 2.67 | 6.83 | 83 | 1011.8 |
| 20260505191328 | 15 | 360 | 3.2 | 6.4 | 0.00 | 2.67 | 6.83 | 83 | 1011.8 |
| 20260505190324 | 15 | 360 | 3.2 | 8.0 | 0.00 | 2.67 | 6.83 | 83 | 1011.7 |
| 20260505185340 | 15 | 360 | 4.8 | 6.4 | 0.00 | 2.67 | 6.83 | 83 | 1011.6 |
| 20260505184349 | 16 | 360 | 3.2 | 6.4 | 0.00 | 2.67 | 6.83 | 82 | 1011.6 |
| 20260505183331 | 16 | 360 | 4.8 | 8.0 | 0.00 | 2.67 | 6.83 | 82 | 1011.6 |
| 20260505182343 | 16 | 360 | 3.2 | 8.0 | 0.00 | 2.67 | 6.83 | 80 | 1011.5 |
| 20260505181325 | 17 | 360 | 6.4 | 8.0 | 0.00 | 2.67 | 6.83 | 78 | 1011.6 |
| 20260505180330 | 17 | 360 | 1.6 | 3.2 | 0.00 | 2.67 | 6.83 | 73 | 1011.7 |
| 20260505175336 | 17 | 360 | 0.0 | 4.8 | 0.00 | 2.67 | 6.83 | 74 | 1011.7 |
| 20260505174323 | 17 | 360 | 4.8 | 8.0 | 0.00 | 2.67 | 6.83 | 73 | 1011.8 |
| 20260505173328 | 17 | 360 | 4.8 | 9.7 | 0.00 | 2.67 | 6.83 | 73 | 1011.8 |
| 20260505172338 | 17 | 360 | 6.4 | 8.0 | 0.10 | 2.67 | 6.83 | 72 | 1011.8 |
| 20260505171325 | 17 | 360 | 4.8 | 6.4 | 0.10 | 2.67 | 6.83 | 70 | 1011.7 |
| 20260505170330 | 17 | 360 | 3.2 | 8.0 | 0.10 | 2.67 | 6.83 | 70 | 1011.8 |
| 20260505165339 | 17 | 360 | 3.2 | 4.8 | 0.10 | 2.67 | 6.83 | 69 | 1011.7 |
| 20260505164325 | 17 | 360 | 4.8 | 6.4 | 0.10 | 2.67 | 6.83 | 70 | 1011.8 |
| 20260505163332 | 17 | 360 | 4.8 | 6.4 | 0.10 | 2.67 | 6.83 | 71 | 1011.9 |
| 20260505162335 | 17 | 360 | 1.6 | 6.4 | 0.00 | 2.67 | 6.81 | 72 | 1011.8 |
| 20260505161324 | 17 | 360 | 4.8 | 8.0 | 0.00 | 2.67 | 6.81 | 71 | 1011.9 |
| 20260505160327 | 17 | 360 | 3.2 | 6.4 | 0.00 | 2.67 | 6.81 | 69 | 1011.9 |
| 20260505153325 | 17 | 360 | 1.6 | 4.8 | 0.00 | 2.67 | 6.81 | 72 | 1011.9 |
| 20260505152338 | 17 | 360 | 3.2 | 4.8 | 0.00 | 2.67 | 6.81 | 73 | 1011.9 |
| 20260505151334 | 17 | 360 | 1.6 | 4.8 | 0.00 | 2.67 | 6.81 | 74 | 1012.0 |
| 20260505150325 | 17 | 360 | 3.2 | 4.8 | 0.00 | 2.67 | 6.81 | 74 | 1012.0 |
| 20260505140342 | 17 | 360 | 6.4 | 9.7 | 0.00 | 2.67 | 6.81 | 79 | 1012.1 |
| 20260505124343 | 17 | 360 | 4.8 | 9.7 | 0.00 | 2.67 | 6.81 | 75 | 1012.3 |
| 20260505123324 | 16 | 360 | 4.8 | 9.7 | 0.00 | 2.67 | 6.81 | 76 | 1012.3 |
| 20260505122334 | 16 | 360 | 6.4 | 12.9 | 0.00 | 2.67 | 6.81 | 76 | 1012.3 |
| 20260505121333 | 16 | 360 | 6.4 | 9.7 | 0.00 | 2.67 | 6.81 | 75 | 1012.3 |
| 20260505120328 | 16 | 360 | 4.8 | 6.4 | 0.00 | 2.67 | 6.81 | 74 | 1012.3 |
| 20260505115324 | 16 | 360 | 3.2 | 8.0 | 0.00 | 2.67 | 6.81 | 75 | 1012.4 |
| 20260505114338 | 16 | 360 | 4.8 | 6.4 | 0.00 | 2.67 | 6.81 | 75 | 1012.4 |
| 20260505113345 | 16 | 360 | 4.8 | 6.4 | 0.00 | 2.67 | 6.81 | 76 | 1012.4 |
| 20260505112333 | 16 | 360 | 3.2 | 4.8 | 0.00 | 2.67 | 6.81 | 77 | 1012.3 |
| 20260505111346 | 16 | 360 | 4.8 | 6.4 | 0.00 | 2.67 | 6.81 | 77 | 1012.3 |
| 20260505110331 | 16 | 360 | 1.6 | 6.4 | 0.00 | 2.67 | 6.81 | 78 | 1012.5 |
| 20260505101334 | 17 | 360 | 3.2 | 6.4 | 0.00 | 2.67 | 6.81 | 76 | 1012.4 |
| 20260505100333 | 17 | 360 | 3.2 | 4.8 | 0.00 | 2.67 | 6.81 | 76 | 1012.3 |
| 20260505095343 | 16 | 360 | 3.2 | 4.8 | 0.00 | 2.67 | 6.81 | 76 | 1012.3 |
| 20260505094343 | 16 | 360 | 1.6 | 4.8 | 0.00 | 2.67 | 6.81 | 75 | 1012.4 |
| 20260505093334 | 16 | 360 | 1.6 | 4.8 | 0.00 | 2.67 | 6.81 | 74 | 1012.2 |
| 20260505092330 | 16 | 360 | 1.6 | 4.8 | 0.00 | 2.67 | 6.81 | 75 | 1012.3 |
| 20260505091340 | 16 | 360 | 3.2 | 6.4 | 0.00 | 2.67 | 6.81 | 76 | 1012.2 |
| 20260505090351 | 16 | 360 | 3.2 | 6.4 | 0.10 | 2.67 | 6.81 | 77 | 1012.1 |
| 20260505085336 | 16 | 360 | 3.2 | 9.7 | 0.20 | 2.67 | 6.81 | 79 | 1012.2 |
| 20260505084336 | 16 | 360 | 1.6 | 8.0 | 0.20 | 2.67 | 6.81 | 81 | 1012.1 |
| 20260505083329 | 16 | 360 | 6.4 | 14.5 | 0.20 | 2.67 | 6.81 | 82 | 1012.1 |
| 20260505082330 | 15 | 360 | 8.0 | 16.1 | 0.20 | 2.67 | 6.81 | 82 | 1012.1 |
| 20260505081342 | 15 | 360 | 9.7 | 16.1 | 0.20 | 2.67 | 6.81 | 80 | 1011.9 |
| 20260505080343 | 15 | 360 | 16.1 | 24.1 | 0.10 | 2.67 | 6.78 | 82 | 1012.2 |
| 20260505075328 | 16 | 360 | 6.4 | 8.0 | 0.00 | 2.64 | 6.76 | 87 | 1011.8 |
| 20260505074333 | 15 | 360 | 3.2 | 4.8 | 0.00 | 2.64 | 6.76 | 89 | 1011.5 |
| 20260505073330 | 15 | 360 | 0.0 | 0.0 | 0.00 | 2.64 | 6.76 | 91 | 1011.4 |
| 20260505072336 | 15 | 360 | 0.0 | 3.2 | 0.00 | 2.64 | 6.76 | 91 | 1011.3 |
| 20260505071324 | 15 | 360 | 0.0 | 3.2 | 0.00 | 2.64 | 6.76 | 92 | 1011.4 |
| 20260505070338 | 15 | 360 | 1.6 | 4.8 | 0.00 | 2.64 | 6.76 | 92 | 1011.3 |
| 20260505065327 | 15 | 360 | 1.6 | 6.4 | 0.00 | 2.64 | 6.76 | 92 | 1011.3 |
| 20260505064335 | 15 | 360 | 0.0 | 6.4 | 0.00 | 2.64 | 6.76 | 92 | 1011.2 |
| 20260505063338 | 15 | 360 | 1.6 | 6.4 | 0.00 | 2.64 | 6.76 | 92 | 1011.3 |
| 20260505062325 | 15 | 360 | 0.0 | 3.2 | 0.00 | 2.64 | 6.76 | 93 | 1011.2 |
| 20260505061323 | 14 | 360 | 3.2 | 3.2 | 0.00 | 2.64 | 6.76 | 93 | 1011.0 |
| 20260505060338 | 13 | 360 | 1.6 | 4.8 | 0.00 | 2.64 | 6.76 | 93 | 1010.9 |
| 20260505055339 | 13 | 360 | 3.2 | 4.8 | 0.00 | 2.64 | 6.76 | 93 | 1010.8 |
| 20260505054330 | 13 | 360 | 0.0 | 3.2 | 0.00 | 2.64 | 6.76 | 93 | 1010.8 |
| 20260505053325 | 13 | 360 | 3.2 | 6.4 | 0.00 | 2.64 | 6.76 | 93 | 1010.5 |
| 20260505052332 | 13 | 360 | 0.0 | 3.2 | 0.00 | 2.64 | 6.76 | 93 | 1010.3 |
| 20260505051324 | 13 | 360 | 3.2 | 6.4 | 0.00 | 2.64 | 6.76 | 92 | 1010.4 |
| 20260505050330 | 13 | 360 | 3.2 | 6.4 | 0.10 | 2.64 | 6.76 | 93 | 1010.3 |
| 20260505041342 | 13 | 360 | 4.8 | 8.0 | 2.59 | 2.64 | 6.76 | 92 | 1010.5 |
| 20260505040329 | 13 | 360 | 3.2 | 8.0 | 3.10 | 2.64 | 6.73 | 93 | 1010.5 |
| 20260505035334 | 13 | 360 | 8.0 | 9.7 | 3.71 | 2.62 | 6.68 | 92 | 1010.9 |
| 20260505034329 | 13 | 360 | 4.8 | 6.4 | 3.71 | 2.57 | 6.53 | 92 | 1011.8 |
| 20260505033348 | 13 | 360 | 4.8 | 14.5 | 3.91 | 25.10 | 6.38 | 92 | 1011.8 |
| 20260505032336 | 13 | 360 | 4.8 | 8.0 | 3.81 | 24.61 | 6.25 | 92 | 1011.9 |
| 20260505031348 | 13 | 360 | 1.6 | 9.7 | 3.61 | 24.00 | 6.10 | 92 | 1012.4 |
| 20260505030338 | 13 | 360 | 1.6 | 17.7 | 3.61 | 23.29 | 5.92 | 91 | 1012.3 |
| 20260505025324 | 13 | 360 | 12.9 | 19.3 | 3.61 | 22.50 | 5.71 | 91 | 1012.1 |
| 20260505024340 | 13 | 360 | 9.7 | 17.7 | 3.61 | 21.89 | 5.56 | 91 | 1012.0 |
| 20260505023340 | 13 | 360 | 8.0 | 22.5 | 3.40 | 21.21 | 5.38 | 91 | 1012.0 |
| 20260505022328 | 13 | 360 | 9.7 | 19.3 | 3.51 | 20.80 | 5.28 | 92 | 1012.1 |
| 20260505021333 | 13 | 360 | 11.3 | 16.1 | 4.09 | 20.29 | 5.16 | 92 | 1012.0 |
| 20260505020337 | 14 | 360 | 8.0 | 12.9 | 5.31 | 19.71 | 5.00 | 92 | 1012.3 |
| 20260505015335 | 14 | 360 | 6.4 | 16.1 | 5.31 | 18.90 | 4.80 | 92 | 1012.5 |
| 20260505014347 | 14 | 360 | 6.4 | 12.9 | 5.31 | 18.29 | 4.65 | 92 | 1012.6 |
| 20260505013347 | 14 | 360 | 11.3 | 24.1 | 5.21 | 17.81 | 4.52 | 92 | 1012.6 |
| 20260505012329 | 15 | 360 | 16.1 | 24.1 | 5.21 | 17.20 | 4.37 | 92 | 1012.7 |
| 20260505011331 | 16 | 360 | 16.1 | 37.0 | 4.90 | 16.00 | 4.06 | 91 | 1012.8 |
| 20260505010336 | 16 | 360 | 20.9 | 32.2 | 3.91 | 14.30 | 3.63 | 92 | 1012.8 |
| 20260505005335 | 16 | 360 | 19.3 | 30.6 | 4.50 | 13.49 | 3.43 | 92 | 1013.1 |
| 20260505004331 | 16 | 360 | 17.7 | 33.8 | 4.50 | 13.00 | 3.30 | 92 | 1013.4 |
| 20260505003343 | 16 | 360 | 12.9 | 30.6 | 4.39 | 12.60 | 3.20 | 92 | 1013.5 |